[[{"header":{"parameterUnit":"m.s-1","parameterCategory":1,"la1":30.2991,"la2":30.254,"lo1":-89.0895,"lo2":-89.0444,"dy":0.0017,"dx":0.0017,"nx":28,"ny":28,"refTime":"2025-06-04T09:00:00:Z","depth":0,"parameterNumber":2,"parameterNumberName":"U-component_of_WINDS"},"data":[0,0,0,0,0,0,0,0,0,0,0,0,0,0,0,0,0,0,0,0,0,0,0,0,0,0,0,0,0,0,0,0,0,0,0,0,0,0,0,0,0,0,0,0,0,0,0,0,0,0,0,0,0,0,0,0,0,0,-5.183,-5.1835,0,-5.2361,-5.2367,-5.2373,-5.2528,-5.2525,-5.2522,-5.252,-5.3068,-5.3085,-5.3102,0,0,0,0,0,0,0,0,0,0,0,0,0,-5.0949,-5.0965,-5.1829,-5.1836,-5.1842,-5.236,-5.2367,-5.2375,-5.2528,-5.2525,-5.2522,-5.2518,-5.3063,-5.3083,-5.3104,0,0,0,0,0,0,0,0,0,0,0,0,0,-5.1391,-5.097,-5.1828,-5.1981,-5.2,-5.2359,-5.2368,-5.2377,-5.2529,-5.2525,-5.2521,-5.2517,-5.3056,-5.3081,-5.3107,-5.3352,0,0,-5.3186,-5.3197,0,0,0,0,0,0,0,0,-5.1366,-5.1423,-5.1952,-5.1971,-5.1993,-5.2374,-5.2259,-5.2704,-5.253,-5.2329,-5.252,-5.2515,-5.2841,-5.2884,-5.2994,-5.3377,-5.3401,-5.3188,-5.3204,-5.3215,-5.3222,0,0,0,0,0,0,0,-5.1335,-5.1401,-5.204,-5.196,-5.1985,-5.2024,-5.2083,-5.2344,-5.2602,-5.2346,-5.2358,-5.2419,-5.2851,-5.2968,-5.3007,-5.3409,-5.3187,-5.321,-5.3226,-5.3236,-5.4018,-5.4023,0,0,0,0,0,0,-5.1278,-5.1375,-5.2023,-5.2056,-5.1663,-5.2044,-5.2109,-5.2256,-5.26,-5.2648,-5.2422,-5.2424,-5.2926,-5.2977,-5.3027,-5.3336,-5.3215,-5.3239,-5.3254,-5.4013,-5.4019,-5.4025,0,0,0,0,0,0,-5.1258,-5.1334,-5.2001,-5.1719,-5.1807,-5.2063,-5.2228,-5.2269,-5.2386,-5.2657,-5.2704,-5.2494,-5.2925,-5.2991,-5.3269,-5.3357,-5.3251,-5.3274,-5.4007,-5.4015,-5.4022,-5.3954,0,0,0,0,0,0,-5.1232,-5.1326,-5.1422,-5.172,-5.1821,-5.2233,-5.2233,-5.2282,-5.2429,-5.2437,-5.2737,-5.2783,-5.2926,-5.323,-5.3295,-5.3391,-5.3294,-5.4,-5.401,-5.402,-5.395,-5.3959,-5.3967,0,0,0,0,0,-5.12,-5.1383,-5.1426,-5.1503,-5.1946,-5.2238,-5.2296,-5.2457,-5.2436,-5.2534,-5.2708,-5.2773,-5.3336,-5.3257,-5.3332,-5.3436,-5.3995,-5.4008,-5.4019,-5.3946,-5.3957,-5.3966,0,0,0,0,0,0,-5.1092,-5.1425,-5.1476,-5.176,-5.1969,-5.2264,-5.2393,-5.2464,-5.2685,-5.2683,-5.2874,-5.294,-5.3204,-5.3349,-5.3254,-5.369,-5.3668,-5.3695,-5.3587,-5.3599,-5.3607,-5.3568,-5.3316,0,0,0,0,0,-5.11,-5.1308,-5.1589,-5.1813,-5.1915,-5.2135,-5.2268,-5.2373,-5.2598,-5.2688,-5.2883,-5.31,-5.3325,-5.347,-5.3693,-5.3971,-5.4038,-5.408,-5.4088,-5.4093,-5.4115,-5.4271,-5.4292,-5.4064,-5.4064,-5.4063,0,0,-5.1121,-5.1329,-5.1449,-5.1796,-5.197,-5.2182,-5.2209,-5.2433,-5.2592,-5.2723,-5.2997,-5.3146,-5.3401,-5.3679,-5.3811,-5.3807,-5.4192,-5.4108,-5.4111,-5.413,-5.4285,-5.4306,-5.4325,-5.4072,-5.407,-5.4069,0,0,-5.1267,-5.1445,-5.165,-5.1823,-5.2085,-5.223,-5.2278,-5.2563,-5.2666,-5.2943,-5.3045,-5.3238,-5.3623,-5.3799,-5.3939,-5.4147,-5.4215,-5.4215,-5.4259,-5.4408,-5.4426,-5.4443,-5.4516,-5.454,-5.4235,-5.4235,-5.4235,0,-5.126,-5.1583,-5.1747,-5.1965,-5.2114,-5.2239,-5.2448,-5.2608,-5.2931,-5.3031,-5.3021,-5.3505,-5.3686,-5.4005,-5.4055,-5.4165,-5.4226,-5.4182,-5.441,-5.4428,-5.4447,-5.4519,-5.4546,-5.4233,-5.4233,-5.4233,-5.4234,0,-5.1561,-5.1782,-5.1916,-5.2221,-5.2386,-5.2598,-5.2794,-5.2941,-5.303,-5.3175,-5.3455,-5.3675,-5.3943,-5.4027,-5.4118,-5.436,-5.4349,-5.4372,-5.4353,-5.4464,-5.4534,-5.4563,-5.423,-5.4231,-5.4232,-5.4232,0,0,-5.1657,-5.2046,-5.2092,-5.2231,-5.2528,-5.2703,-5.292,-5.318,-5.3302,-5.3519,-5.3705,-5.4026,-5.4049,-5.4207,-5.4319,-5.445,-5.4598,-5.4458,-5.4466,-5.4475,-5.4877,-5.4857,-5.4886,-5.4644,-5.465,-5.4655,-5.4855,0,-5.184,-5.2231,-5.2383,-5.2702,-5.2908,-5.3028,-5.3217,-5.3419,-5.356,-5.3756,-5.3912,-5.4136,-5.4149,-5.4245,-5.438,-5.4551,-5.4682,-5.4539,-5.482,-5.4828,-5.4752,-5.4924,-5.4905,-5.5083,-5.4884,-5.4889,-5.4892,0,-5.2107,-5.2323,-5.2661,-5.2929,-5.3022,-5.3189,-5.3438,-5.3624,-5.3855,-5.3948,-5.4122,-5.4225,-5.4457,-5.4422,-5.4743,-5.4643,-5.4766,-5.4867,-5.4878,-5.4911,-5.4867,-5.496,-5.5144,-5.517,-5.4938,-5.4934,-5.4931,0,-5.2141,-5.2517,-5.2767,-5.2882,-5.3202,-5.3316,-5.3455,-5.3682,-5.3828,-5.4046,-5.4142,-5.4385,-5.4518,-5.4703,-5.4868,-5.4827,-5.5174,-5.5153,-5.5258,-5.5253,-5.5326,-5.5319,-5.5531,-5.5405,-5.5405,-5.5404,-5.5404,0,-5.233,-5.2532,-5.2786,-5.294,-5.317,-5.3342,-5.3565,-5.3712,-5.3912,-5.4097,-5.4216,-5.4387,-5.4595,-5.4793,-5.4923,-5.5168,-5.5228,-5.531,-5.5342,-5.53,-5.5289,-5.5383,-5.5375,-5.5411,-5.541,-5.5408,-5.5407,0,-5.2408,-5.2587,-5.2867,-5.3145,-5.3219,-5.3376,-5.3615,-5.3769,-5.3913,-5.4145,-5.421,-5.4437,-5.4676,-5.4858,-5.5169,-5.5257,-5.5516,-5.5551,-5.5437,-5.5454,-5.5548,-5.5536,-5.5828,-5.5875,-5.5716,-5.5718,-5.5719,0,-5.2517,-5.2675,-5.2968,-5.3099,-5.3236,-5.3446,-5.3594,-5.3769,-5.3919,-5.4192,-5.4313,-5.4559,-5.4765,-5.514,-5.5334,-5.5571,-5.5613,-5.5698,-5.565,-5.56,-5.5613,-5.5601,-5.5617,-5.5705,-5.5706,-5.5706,-5.5707,0,-5.2691,-5.277,-5.2978,-5.3216,-5.3388,-5.3585,-5.3785,-5.3885,-5.4096,-5.4258,-5.4502,-5.4661,-5.4976,-5.5219,-5.5475,-5.562,-5.5699,-5.572,-5.5757,-5.5715,-5.5642,-5.5681,-5.5454,-5.5713,-5.5713,-5.5712,-5.5712,-5.5712,-5.2788,-5.2933,-5.316,-5.3387,-5.3554,-5.3736,-5.3894,-5.4056,-5.4262,-5.453,-5.4622,-5.4872,-5.5098,-5.545,-5.5595,-5.5794,-5.5797,-5.585,-5.5864,-5.5874,-5.5869,-5.5609,-5.5842,-5.5842,-5.5842,-5.5842,-5.5842,0,-5.2967,-5.3118,-5.3325,-5.3598,-5.3776,-5.3831,-5.4054,-5.4199,-5.4418,-5.462,-5.4819,-5.5098,-5.5333,-5.5543,-5.5788,-5.5906,-5.5948,-5.5965,-5.5958,-5.5989,-5.5854,-5.5797,-5.5926,-5.5926,-5.5926,-5.5926,-5.5926,-5.5926,-5.3081,-5.3328,-5.3433,-5.3763,-5.3915,-5.4159,-5.4281,-5.4449,-5.4611,-5.4916,-5.5111,-5.5245,-5.5451,-5.5711,-5.5929,-5.5985,-5.6069,-5.6075,-5.614,-5.601,-5.5999,-5.5989,-5.5936,-5.6092,-5.6092,-5.6259,-5.626,-5.6261]},{"header":{"parameterUnit":"m.s-1","parameterCategory":1,"la1":30.2991,"la2":30.254,"lo1":-89.0895,"lo2":-89.0444,"dy":0.0017,"dx":0.0017,"nx":28,"ny":28,"refTime":"2025-06-04T09:00:00:Z","depth":0,"parameterNumber":3,"parameterNumberName":"V-component_of_WINDS"},"data":[0,0,0,0,0,0,0,0,0,0,0,0,0,0,0,0,0,0,0,0,0,0,0,0,0,0,0,0,0,0,0,0,0,0,0,0,0,0,0,0,0,0,0,0,0,0,0,0,0,0,0,0,0,0,0,0,0,0,0.1027,0.1028,0,0.1163,0.1165,0.1166,0.1164,0.1162,0.116,0.1159,0.1312,0.1318,0.1323,0,0,0,0,0,0,0,0,0,0,0,0,0,0.0776,0.0781,0.1026,0.1028,0.103,0.1163,0.1165,0.1167,0.1164,0.1162,0.116,0.1158,0.131,0.1317,0.1324,0,0,0,0,0,0,0,0,0,0,0,0,0,0.0896,0.0782,0.1026,0.1044,0.1047,0.1162,0.1165,0.1167,0.1165,0.1162,0.1159,0.1157,0.1308,0.1316,0.1325,0.1435,0,0,0.1352,0.1355,0,0,0,0,0,0,0,0,0.089,0.0906,0.104,0.1043,0.1047,0.1143,0.1133,0.1257,0.1166,0.1121,0.1159,0.1155,0.1259,0.1272,0.1304,0.1442,0.1449,0.1352,0.1358,0.1361,0.1364,0,0,0,0,0,0,0,0.0881,0.09,0.1081,0.1042,0.1046,0.105,0.1064,0.1156,0.1205,0.1124,0.1125,0.114,0.1261,0.1295,0.1307,0.1451,0.1352,0.136,0.1365,0.1369,0.1687,0.169,0,0,0,0,0,0,0.0867,0.0893,0.1077,0.1085,0.0959,0.1057,0.1072,0.1116,0.1203,0.1214,0.1142,0.1139,0.1282,0.1297,0.1313,0.1448,0.1361,0.137,0.1375,0.1684,0.1688,0.1691,0,0,0,0,0,0,0.0862,0.0884,0.1071,0.0989,0.1013,0.1064,0.1113,0.112,0.1154,0.1216,0.1226,0.1168,0.128,0.1301,0.1404,0.1453,0.1374,0.1381,0.168,0.1685,0.169,0.1719,0,0,0,0,0,0,0.0855,0.0882,0.0921,0.099,0.1017,0.1156,0.1115,0.1124,0.1168,0.1165,0.1244,0.1254,0.128,0.1391,0.1412,0.1464,0.1388,0.1676,0.1682,0.1688,0.1714,0.1724,0.1733,0,0,0,0,0,0.0846,0.0927,0.0923,0.0946,0.1067,0.1159,0.1175,0.1199,0.1172,0.1214,0.1254,0.1252,0.1443,0.1401,0.1426,0.1481,0.1673,0.1681,0.1688,0.171,0.1722,0.1733,0,0,0,0,0,0,0.0869,0.0937,0.0933,0.1038,0.1092,0.1158,0.1212,0.1212,0.1279,0.1274,0.1305,0.1323,0.1426,0.1464,0.1415,0.1592,0.1555,0.1568,0.1564,0.1576,0.1586,0.1576,0.1396,0,0,0,0,0,0.0885,0.095,0.1007,0.1095,0.1121,0.1162,0.1203,0.1216,0.1275,0.13,0.1347,0.1408,0.1482,0.1531,0.1603,0.1718,0.1737,0.1768,0.1778,0.1785,0.1797,0.1862,0.1877,0.1715,0.1715,0.1715,0,0,0.0922,0.0967,0.1007,0.11,0.1144,0.1214,0.1182,0.1258,0.1311,0.1313,0.1412,0.1449,0.1519,0.1629,0.168,0.1664,0.1845,0.1794,0.18,0.1808,0.1871,0.1886,0.19,0.172,0.1719,0.1718,0,0,0.1024,0.1063,0.114,0.1183,0.1247,0.1273,0.1292,0.1357,0.138,0.1479,0.1482,0.1548,0.1675,0.1725,0.1767,0.1885,0.1887,0.1908,0.196,0.2022,0.2035,0.2047,0.2091,0.2106,0.1919,0.1919,0.1919,0,0.1064,0.1165,0.1182,0.1256,0.1299,0.1297,0.1378,0.142,0.1507,0.1538,0.1517,0.1674,0.1722,0.1844,0.1872,0.1906,0.1931,0.1901,0.2031,0.2043,0.2054,0.2097,0.2113,0.1921,0.1921,0.192,0.192,0,0.121,0.128,0.1336,0.1413,0.1462,0.1539,0.1571,0.1619,0.1627,0.1656,0.1758,0.1814,0.1897,0.1926,0.1937,0.205,0.2038,0.2024,0.1988,0.2071,0.2112,0.2128,0.1924,0.1923,0.1923,0.1922,0,0,0.1335,0.1417,0.1438,0.1473,0.1542,0.1599,0.1678,0.1753,0.1795,0.1854,0.1923,0.2028,0.2014,0.2062,0.2079,0.2133,0.2226,0.2113,0.2115,0.2134,0.2356,0.2368,0.2386,0.2225,0.2228,0.2231,0.235,0,0.1446,0.158,0.1596,0.1718,0.1784,0.1783,0.1851,0.1903,0.1932,0.1996,0.203,0.2105,0.208,0.2109,0.2163,0.2203,0.2271,0.2194,0.2294,0.2297,0.2278,0.2407,0.2421,0.2531,0.2366,0.2369,0.2371,0,0.1595,0.1652,0.1778,0.1837,0.1866,0.1927,0.1998,0.2057,0.2117,0.2135,0.2186,0.2195,0.2279,0.2237,0.2356,0.2303,0.2345,0.2371,0.2376,0.2389,0.2341,0.2426,0.2566,0.2584,0.2396,0.2394,0.2392,0,0.1675,0.1785,0.1874,0.1904,0.1975,0.2018,0.205,0.2106,0.2151,0.2214,0.2244,0.2318,0.2359,0.2418,0.2448,0.2414,0.2565,0.2525,0.2586,0.2585,0.2621,0.2619,0.2772,0.2643,0.2642,0.2642,0.2642,0,0.18,0.1878,0.1911,0.1967,0.2054,0.2073,0.2161,0.2193,0.2243,0.2307,0.2311,0.2373,0.2406,0.2474,0.2498,0.2594,0.2612,0.2632,0.2638,0.2633,0.2631,0.2663,0.2657,0.2646,0.2645,0.2645,0.2644,0,0.1906,0.1931,0.2029,0.2085,0.2102,0.2164,0.2215,0.2271,0.2297,0.2379,0.2399,0.2444,0.2523,0.2556,0.2656,0.2672,0.2782,0.2782,0.2761,0.2764,0.2823,0.2817,0.3005,0.3031,0.2882,0.2883,0.2884,0,0.1985,0.2044,0.2106,0.2146,0.2178,0.2245,0.2288,0.231,0.2356,0.2427,0.2476,0.2553,0.2617,0.2744,0.2788,0.2864,0.2867,0.2927,0.2879,0.2872,0.2871,0.2868,0.2875,0.2937,0.2938,0.294,0.2941,0,0.2124,0.2132,0.2192,0.2257,0.2308,0.2361,0.2414,0.2448,0.2478,0.2531,0.2609,0.2657,0.2756,0.2834,0.2912,0.295,0.2952,0.2954,0.2973,0.297,0.2957,0.2967,0.2788,0.2951,0.295,0.2949,0.2949,0.2948,0.2221,0.2273,0.2323,0.2391,0.2431,0.2479,0.2533,0.2565,0.2629,0.2707,0.2717,0.2801,0.286,0.2964,0.3004,0.3073,0.3059,0.3085,0.3093,0.3099,0.3104,0.2942,0.3088,0.3087,0.3087,0.3087,0.3087,0,0.2361,0.2392,0.2453,0.2524,0.2577,0.2567,0.2624,0.2672,0.2744,0.2796,0.2857,0.2948,0.3023,0.3071,0.3148,0.3194,0.3197,0.3214,0.3213,0.3222,0.3111,0.3089,0.321,0.321,0.321,0.321,0.321,0.321,0.244,0.2528,0.2542,0.2651,0.2683,0.2762,0.2795,0.2841,0.2883,0.2982,0.3042,0.3071,0.3123,0.3203,0.3273,0.3285,0.3315,0.3333,0.3345,0.3242,0.3229,0.3217,0.3196,0.3338,0.3339,0.345,0.3451,0.3452]}]]